Time,TemperatureF,DewpointF,PressureIn,WindDirection,WindDirectionDegrees,WindSpeedMPH,WindSpeedGustMPH,Humidity,HourlyPrecipIn,Conditions,Clouds,dailyrainin,SoftwareType,DateUTC
2013-08-18 00:01:00,61.3,53.4,29.80,NE,42,0.0,0.0,75,0.00,,BKN220,0.00,VWS V14.01,2013-08-18 04:01:00,
2013-08-18 00:02:00,61.3,53.4,29.80,NE,42,0.0,0.0,75,0.00,,BKN220,0.00,VWS V14.01,2013-08-18 04:02:00,
2013-08-18 00:03:00,61.3,53.7,29.80,NE,42,0.0,0.0,76,0.00,,BKN220,0.00,VWS V14.01,2013-08-18 04:03:00,
2013-08-18 00:06:00,61.2,53.2,29.80,NE,42,0.0,0.0,75,0.00,,BKN220,0.00,VWS V14.01,2013-08-18 04:06:00,
2013-08-18 00:11:00,61.2,53.5,29.80,NE,42,0.0,0.0,76,0.00,,BKN220,0.00,VWS V14.01,2013-08-18 04:11:00,
2013-08-18 00:16:00,61.0,53.0,29.80,NE,42,0.0,0.0,75,0.00,,BKN220,0.00,VWS V14.01,2013-08-18 04:16:00,
2013-08-18 00:22:00,60.8,53.2,29.80,NE,42,0.0,0.0,76,0.00,,BKN220,0.00,VWS V14.01,2013-08-18 04:22:00,
2013-08-18 00:27:00,60.8,53.2,29.80,NE,42,0.0,2.2,76,0.00,,BKN220,0.00,VWS V14.01,2013-08-18 04:27:00,
2013-08-18 00:32:00,60.8,52.8,29.80,NE,42,0.0,0.0,75,0.00,,BKN220,0.00,VWS V14.01,2013-08-18 04:32:00,
2013-08-18 00:37:00,60.6,53.0,29.80,NE,42,0.0,0.0,76,0.00,,BKN220,0.00,VWS V14.01,2013-08-18 04:37:00,
2013-08-18 00:42:00,60.6,52.7,29.80,NE,42,0.0,0.0,75,0.00,,BKN220,0.00,VWS V14.01,2013-08-18 04:42:00,
2013-08-18 00:47:00,60.6,52.7,29.80,NE,42,0.0,0.0,75,0.00,,BKN220,0.00,VWS V14.01,2013-08-18 04:47:00,
2013-08-18 00:52:00,60.4,52.8,29.80,NE,42,0.0,0.0,76,0.00,,BKN220,0.00,VWS V14.01,2013-08-18 04:52:00,
2013-08-18 00:57:00,60.4,53.2,29.80,NE,42,0.0,0.0,77,0.00,,BKN220,0.00,VWS V14.01,2013-08-18 04:57:00,
2013-08-18 01:02:00,60.4,53.2,29.80,NE,42,0.0,0.0,77,0.00,,BKN220,0.00,VWS V14.01,2013-08-18 05:02:00,
2013-08-18 01:07:00,60.4,53.2,29.80,NE,42,0.0,0.0,77,0.00,,BKN220,0.00,VWS V14.01,2013-08-18 05:07:00,
2013-08-18 01:12:00,60.3,53.0,29.80,NE,41,0.0,0.0,77,0.00,,BKN220,0.00,VWS V14.01,2013-08-18 05:12:00,
2013-08-18 01:17:00,60.1,52.5,29.80,NE,42,0.0,0.0,76,0.00,,BKN220,0.00,VWS V14.01,2013-08-18 05:17:00,
2013-08-18 01:22:00,60.4,52.8,29.80,NE,42,0.0,0.0,76,0.00,,BKN220,0.00,VWS V14.01,2013-08-18 05:22:00,
2013-08-18 01:27:00,60.4,52.8,29.80,NE,42,0.0,0.0,76,0.00,,BKN220,0.00,VWS V14.01,2013-08-18 05:27:00,
2013-08-18 01:32:00,60.4,52.8,29.80,NE,42,0.0,0.0,76,0.00,,BKN220,0.00,VWS V14.01,2013-08-18 05:32:00,
2013-08-18 01:37:00,60.1,52.5,29.80,NE,42,2.2,2.2,76,0.00,,BKN240,0.00,VWS V14.01,2013-08-18 05:37:00,
2013-08-18 01:42:00,60.1,52.5,29.80,NE,42,0.0,2.2,76,0.00,,BKN240,0.00,VWS V14.01,2013-08-18 05:42:00,
2013-08-18 01:47:00,59.9,52.3,29.80,NE,42,0.0,0.0,76,0.00,,BKN240,0.00,VWS V14.01,2013-08-18 05:47:00,
2013-08-18 01:52:00,59.9,52.3,29.80,NE,42,0.0,0.0,76,0.00,,BKN240,0.00,VWS V14.01,2013-08-18 05:52:00,
2013-08-18 01:57:00,59.7,52.2,29.80,NE,42,0.0,0.0,76,0.00,,BKN240,0.00,VWS V14.01,2013-08-18 05:57:00,
2013-08-18 02:02:00,59.7,52.5,29.80,NE,42,0.0,0.0,77,0.00,,BKN240,0.00,VWS V14.01,2013-08-18 06:02:00,
2013-08-18 02:07:00,59.7,52.5,29.80,NE,42,0.0,0.0,77,0.00,,BKN240,0.00,VWS V14.01,2013-08-18 06:07:00,
2013-08-18 02:12:00,59.5,52.3,29.80,NE,42,0.0,0.0,77,0.00,,BKN240,0.00,VWS V14.01,2013-08-18 06:12:00,
2013-08-18 02:17:00,59.4,52.2,29.80,NE,42,0.0,0.0,77,0.00,,BKN240,0.00,VWS V14.01,2013-08-18 06:17:00,
2013-08-18 02:22:00,59.4,52.2,29.80,NE,42,0.0,0.0,77,0.00,,BKN240,0.00,VWS V14.01,2013-08-18 06:22:00,
2013-08-18 02:27:00,59.0,51.5,29.80,NE,42,2.2,2.7,76,0.00,,BKN240,0.00,VWS V14.01,2013-08-18 06:27:00,
2013-08-18 02:32:00,59.0,51.8,29.80,NE,42,2.7,3.1,77,0.00,,BKN240,0.00,VWS V14.01,2013-08-18 06:32:00,
2013-08-18 02:37:00,58.8,51.6,29.78,South,169,4.0,4.0,77,0.00,,BKN260,0.00,VWS V14.01,2013-08-18 06:37:00,
2013-08-18 02:42:00,58.8,50.9,29.78,South,180,2.2,4.0,75,0.00,,BKN260,0.00,VWS V14.01,2013-08-18 06:42:00,
2013-08-18 02:47:00,58.6,51.1,29.78,South,180,0.0,3.1,76,0.00,,BKN260,0.00,VWS V14.01,2013-08-18 06:47:00,
2013-08-18 02:52:00,58.8,51.3,29.78,South,180,0.0,0.0,76,0.00,,BKN260,0.00,VWS V14.01,2013-08-18 06:52:00,
2013-08-18 02:57:00,58.5,50.6,29.78,South,180,0.0,0.0,75,0.00,,BKN260,0.00,VWS V14.01,2013-08-18 06:57:00,
2013-08-18 03:02:00,58.6,50.8,29.78,South,180,0.0,0.0,75,0.00,,BKN260,0.00,VWS V14.01,2013-08-18 07:02:00,
2013-08-18 03:07:00,58.6,50.4,29.78,South,180,0.0,0.0,74,0.00,,BKN260,0.00,VWS V14.01,2013-08-18 07:07:00,
2013-08-18 03:12:00,58.3,50.0,29.78,South,180,0.0,0.0,74,0.00,,BKN260,0.00,VWS V14.01,2013-08-18 07:12:00,
2013-08-18 03:17:00,58.1,49.9,29.78,South,180,0.0,0.0,74,0.00,,BKN260,0.00,VWS V14.01,2013-08-18 07:17:00,
2013-08-18 03:22:00,58.1,49.9,29.78,South,180,0.0,0.0,74,0.00,,BKN260,0.00,VWS V14.01,2013-08-18 07:22:00,
2013-08-18 03:27:00,57.9,50.0,29.78,South,180,0.0,0.0,75,0.00,,BKN260,0.00,VWS V14.01,2013-08-18 07:27:00,
2013-08-18 03:32:00,57.9,50.0,29.78,South,180,0.0,0.0,75,0.00,,BKN260,0.00,VWS V14.01,2013-08-18 07:32:00,
2013-08-18 03:37:00,57.7,49.9,29.78,South,180,0.0,0.0,75,0.00,,BKN260,0.00,VWS V14.01,2013-08-18 07:37:00,
2013-08-18 03:42:00,57.7,50.2,29.78,South,180,0.0,0.0,76,0.00,,BKN260,0.00,VWS V14.01,2013-08-18 07:42:00,
2013-08-18 03:47:00,57.9,50.4,29.78,South,180,0.0,0.0,76,0.00,,BKN260,0.00,VWS V14.01,2013-08-18 07:47:00,
2013-08-18 03:52:00,57.7,50.2,29.78,South,180,0.0,0.0,76,0.00,,BKN260,0.00,VWS V14.01,2013-08-18 07:52:00,
2013-08-18 03:57:00,57.6,50.1,29.78,South,180,0.0,0.0,76,0.00,,BKN260,0.00,VWS V14.01,2013-08-18 07:57:00,
2013-08-18 04:02:00,57.6,50.4,29.78,South,180,0.0,0.0,77,0.00,,BKN260,0.00,VWS V14.01,2013-08-18 08:02:00,
2013-08-18 04:07:00,57.6,50.1,29.78,South,180,0.0,0.0,76,0.00,,BKN260,0.00,VWS V14.01,2013-08-18 08:07:00,
2013-08-18 04:12:00,57.6,50.1,29.78,South,180,0.0,0.0,76,0.00,,BKN260,0.00,VWS V14.01,2013-08-18 08:12:00,
2013-08-18 04:18:00,57.4,49.9,29.78,South,180,0.0,0.0,76,0.00,,BKN260,0.00,VWS V14.01,2013-08-18 08:18:00,
2013-08-18 04:23:00,57.2,49.7,29.78,South,180,0.0,0.0,76,0.00,,BKN260,0.00,VWS V14.01,2013-08-18 08:23:00,
2013-08-18 04:28:00,57.2,50.1,29.78,South,180,0.0,0.0,77,0.00,,BKN260,0.00,VWS V14.01,2013-08-18 08:28:00,
2013-08-18 04:33:00,57.2,49.7,29.78,South,180,0.0,0.0,76,0.00,,BKN260,0.00,VWS V14.01,2013-08-18 08:33:00,
2013-08-18 04:38:00,57.0,49.9,29.78,South,180,0.0,0.0,77,0.00,,FEW240,0.00,VWS V14.01,2013-08-18 08:38:00,
2013-08-18 04:43:00,56.8,50.1,29.78,South,180,0.0,0.0,78,0.00,,FEW240,0.00,VWS V14.01,2013-08-18 08:43:00,
2013-08-18 04:48:00,57.2,50.4,29.78,South,180,0.0,0.0,78,0.00,,FEW240,0.00,VWS V14.01,2013-08-18 08:48:00,
2013-08-18 04:53:00,57.2,50.4,29.78,South,180,0.0,0.0,78,0.00,,FEW240,0.00,VWS V14.01,2013-08-18 08:53:00,
2013-08-18 04:58:00,57.2,50.4,29.78,South,180,0.0,0.0,78,0.00,,FEW240,0.00,VWS V14.01,2013-08-18 08:58:00,
2013-08-18 05:03:00,57.2,50.4,29.78,South,180,0.0,0.0,78,0.00,,FEW240,0.00,VWS V14.01,2013-08-18 09:03:00,
2013-08-18 05:08:00,57.2,50.4,29.78,South,180,0.0,0.0,78,0.00,,FEW240,0.00,VWS V14.01,2013-08-18 09:08:00,
2013-08-18 05:13:00,57.2,50.8,29.78,South,180,0.0,0.0,79,0.00,,FEW240,0.00,VWS V14.01,2013-08-18 09:13:00,
2013-08-18 05:18:00,57.0,50.6,29.78,South,180,0.0,0.0,79,0.00,,FEW240,0.00,VWS V14.01,2013-08-18 09:18:00,
2013-08-18 05:23:00,57.0,50.6,29.78,South,180,0.0,0.0,79,0.00,,FEW240,0.00,VWS V14.01,2013-08-18 09:23:00,
2013-08-18 05:28:00,57.2,50.8,29.78,South,180,0.0,0.0,79,0.00,,FEW240,0.00,VWS V14.01,2013-08-18 09:28:00,
2013-08-18 05:33:00,57.4,50.9,29.78,South,180,0.0,0.0,79,0.00,,FEW230,0.00,VWS V14.01,2013-08-18 09:33:00,
2013-08-18 05:38:00,57.6,51.1,29.78,South,180,0.0,0.0,79,0.00,,FEW230,0.00,VWS V14.01,2013-08-18 09:38:00,
2013-08-18 05:43:00,57.6,51.5,29.78,South,180,0.0,0.0,80,0.00,,FEW230,0.00,VWS V14.01,2013-08-18 09:43:00,
2013-08-18 05:48:00,57.6,51.5,29.78,South,180,0.0,0.0,80,0.00,,FEW230,0.00,VWS V14.01,2013-08-18 09:48:00,
2013-08-18 05:53:00,57.6,51.5,29.78,South,180,0.0,0.0,80,0.00,,FEW230,0.00,VWS V14.01,2013-08-18 09:53:00,
2013-08-18 05:58:00,57.4,51.3,29.78,South,180,0.0,0.0,80,0.00,,FEW230,0.00,VWS V14.01,2013-08-18 09:58:00,
2013-08-18 06:03:00,57.4,51.3,29.78,South,180,0.0,0.0,80,0.00,,FEW230,0.00,VWS V14.01,2013-08-18 10:03:00,
2013-08-18 06:08:00,57.4,51.3,29.78,South,180,0.0,0.0,80,0.00,,FEW230,0.00,VWS V14.01,2013-08-18 10:08:00,
2013-08-18 06:13:00,57.4,51.6,29.78,South,180,0.0,0.0,81,0.00,,FEW230,0.00,VWS V14.01,2013-08-18 10:13:00,
2013-08-18 06:18:00,57.4,51.6,29.78,South,180,0.0,0.0,81,0.00,,FEW230,0.00,VWS V14.01,2013-08-18 10:18:00,
2013-08-18 06:23:00,57.6,51.8,29.78,South,180,0.0,0.0,81,0.00,,FEW230,0.00,VWS V14.01,2013-08-18 10:23:00,
2013-08-18 06:28:00,57.4,51.6,29.78,South,180,0.0,0.0,81,0.00,,FEW230,0.00,VWS V14.01,2013-08-18 10:28:00,
2013-08-18 06:33:00,57.4,51.3,29.78,South,180,0.0,0.0,80,0.00,,SCT230,0.00,VWS V14.01,2013-08-18 10:33:00,
2013-08-18 06:38:00,57.6,51.8,29.78,South,180,0.0,0.0,81,0.00,,SCT230,0.00,VWS V14.01,2013-08-18 10:38:00,
2013-08-18 06:43:00,57.6,51.8,29.78,South,180,0.0,0.0,81,0.00,,SCT230,0.00,VWS V14.01,2013-08-18 10:43:00,
2013-08-18 06:48:00,57.7,52.0,29.78,South,180,0.0,0.0,81,0.00,,SCT230,0.00,VWS V14.01,2013-08-18 10:48:00,
2013-08-18 06:53:00,57.6,51.8,29.78,South,180,0.0,0.0,81,0.00,,SCT230,0.00,VWS V14.01,2013-08-18 10:53:00,
2013-08-18 06:58:00,57.7,52.0,29.78,South,180,0.0,0.0,81,0.00,,SCT230,0.00,VWS V14.01,2013-08-18 10:58:00,
2013-08-18 07:03:00,57.9,52.1,29.78,South,180,0.0,0.0,81,0.00,,SCT230,0.00,VWS V14.01,2013-08-18 11:03:00,
2013-08-18 07:08:00,58.1,52.3,29.78,South,180,0.0,0.0,81,0.00,,SCT230,0.00,VWS V14.01,2013-08-18 11:08:00,
2013-08-18 07:13:00,58.5,52.7,29.78,South,180,0.0,0.0,81,0.00,,SCT230,0.00,VWS V14.01,2013-08-18 11:13:00,
2013-08-18 07:18:00,58.8,53.0,29.78,South,180,2.7,3.1,81,0.00,,SCT230,0.00,VWS V14.01,2013-08-18 11:18:00,
2013-08-18 07:23:00,59.0,53.2,29.78,South,180,3.1,3.1,81,0.00,,SCT230,0.00,VWS V14.01,2013-08-18 11:23:00,
2013-08-18 07:28:00,59.2,53.4,29.78,SSW,207,0.0,2.2,81,0.00,,SCT230,0.00,VWS V14.01,2013-08-18 11:28:00,
2013-08-18 07:33:00,59.2,53.4,29.78,SSW,207,0.0,0.0,81,0.00,,BKN230,0.00,VWS V14.01,2013-08-18 11:33:00,
2013-08-18 07:38:00,59.4,53.9,29.78,SSW,207,0.0,0.0,82,0.00,,BKN230,0.00,VWS V14.01,2013-08-18 11:38:00,
2013-08-18 07:43:00,59.5,54.0,29.78,SSW,207,0.0,0.0,82,0.00,,BKN230,0.00,VWS V14.01,2013-08-18 11:43:00,
2013-08-18 07:48:00,59.9,54.4,29.78,SSW,207,0.0,0.0,82,0.00,,BKN230,0.00,VWS V14.01,2013-08-18 11:48:00,
2013-08-18 07:53:00,60.1,54.6,29.78,SW,225,2.7,2.7,82,0.00,,BKN230,0.00,VWS V14.01,2013-08-18 11:53:00,
2013-08-18 07:58:00,60.3,54.8,29.78,SW,225,3.1,3.1,82,0.00,,BKN230,0.00,VWS V14.01,2013-08-18 11:58:00,
2013-08-18 08:03:00,60.6,55.1,29.78,SW,225,0.0,3.6,82,0.00,,BKN230,0.00,VWS V14.01,2013-08-18 12:03:00,
2013-08-18 08:08:00,60.8,55.3,29.78,SW,225,2.2,2.7,82,0.00,,BKN230,0.00,VWS V14.01,2013-08-18 12:08:00,
2013-08-18 08:13:00,61.0,55.8,29.78,SW,225,0.0,2.2,83,0.00,,BKN230,0.00,VWS V14.01,2013-08-18 12:13:00,
2013-08-18 08:19:00,61.3,56.1,29.78,SW,218,2.7,2.7,83,0.00,,BKN230,0.00,VWS V14.01,2013-08-18 12:19:00,
2013-08-18 08:24:00,61.7,56.5,29.78,SW,218,0.0,0.0,83,0.00,,BKN230,0.00,VWS V14.01,2013-08-18 12:24:00,
2013-08-18 08:29:00,61.9,56.7,29.78,SW,218,0.0,0.0,83,0.00,,BKN230,0.00,VWS V14.01,2013-08-18 12:29:00,
2013-08-18 08:34:00,62.1,56.5,29.78,SW,218,0.0,0.0,82,0.00,,BKN230,0.00,VWS V14.01,2013-08-18 12:34:00,
2013-08-18 08:39:00,62.4,56.9,29.78,SW,218,0.0,0.0,82,0.00,,BKN230,0.00,VWS V14.01,2013-08-18 12:39:00,
2013-08-18 08:44:00,62.6,56.7,29.78,SW,218,0.0,0.0,81,0.00,,BKN230,0.00,VWS V14.01,2013-08-18 12:44:00,
2013-08-18 08:49:00,62.8,56.5,29.78,SW,218,0.0,0.0,80,0.00,,BKN230,0.00,VWS V14.01,2013-08-18 12:49:00,
2013-08-18 08:54:00,63.1,57.2,29.78,SW,218,0.0,0.0,81,0.00,,BKN230,0.00,VWS V14.01,2013-08-18 12:54:00,
2013-08-18 08:59:00,63.5,57.6,29.78,SW,218,3.6,3.6,81,0.00,,BKN230,0.00,VWS V14.01,2013-08-18 12:59:00,
2013-08-18 09:04:00,63.7,57.8,29.78,SW,224,3.1,3.1,81,0.00,,BKN230,0.00,VWS V14.01,2013-08-18 13:04:00,
2013-08-18 09:09:00,64.2,58.3,29.80,SSW,208,2.7,3.1,81,0.00,,BKN230,0.00,VWS V14.01,2013-08-18 13:09:00,
2013-08-18 09:14:00,64.8,58.8,29.80,SSW,198,3.6,4.0,81,0.00,,BKN230,0.00,VWS V14.01,2013-08-18 13:14:00,
2013-08-18 09:19:00,65.1,59.2,29.80,SW,225,2.7,3.6,81,0.00,,BKN230,0.00,VWS V14.01,2013-08-18 13:19:00,
2013-08-18 09:24:00,65.3,59.0,29.78,SW,229,3.1,3.1,80,0.00,,BKN230,0.00,VWS V14.01,2013-08-18 13:24:00,
2013-08-18 09:29:00,65.7,59.0,29.78,SW,220,0.0,3.6,79,0.00,,BKN230,0.00,VWS V14.01,2013-08-18 13:29:00,
2013-08-18 09:34:00,66.0,59.3,29.78,SW,221,0.0,2.7,79,0.00,,BKN250,0.00,VWS V14.01,2013-08-18 13:34:00,
2013-08-18 09:39:00,66.2,59.2,29.80,SW,221,0.0,0.0,78,0.00,,BKN250,0.00,VWS V14.01,2013-08-18 13:39:00,
2013-08-18 09:44:00,66.6,59.1,29.80,SW,221,0.0,0.0,77,0.00,,BKN250,0.00,VWS V14.01,2013-08-18 13:44:00,
2013-08-18 09:49:00,66.6,59.1,29.80,SW,221,0.0,0.0,77,0.00,,BKN250,0.00,VWS V14.01,2013-08-18 13:49:00,
2013-08-18 09:54:00,66.9,59.5,29.78,SW,221,0.0,0.0,77,0.00,,BKN250,0.00,VWS V14.01,2013-08-18 13:54:00,
2013-08-18 09:59:00,67.5,59.6,29.78,SW,221,0.0,0.0,76,0.00,,BKN250,0.00,VWS V14.01,2013-08-18 13:59:00,
2013-08-18 10:04:00,68.2,60.0,29.78,SW,221,4.0,4.5,75,0.00,,BKN250,0.00,VWS V14.01,2013-08-18 14:04:00,
2013-08-18 10:09:00,68.5,60.3,29.78,SW,221,2.7,3.6,75,0.00,,BKN250,0.00,VWS V14.01,2013-08-18 14:09:00,
2013-08-18 10:14:00,69.1,59.7,29.78,SSW,212,3.1,4.0,72,0.00,,BKN250,0.00,VWS V14.01,2013-08-18 14:14:00,
2013-08-18 10:19:00,69.8,60.4,29.78,SSW,208,3.1,4.0,72,0.00,,BKN250,0.00,VWS V14.01,2013-08-18 14:19:00,
2013-08-18 10:24:00,70.2,59.1,29.78,SSW,213,2.2,4.5,68,0.00,,BKN250,0.00,VWS V14.01,2013-08-18 14:24:00,
2013-08-18 10:29:00,70.5,59.9,29.78,SW,215,3.1,3.6,69,0.00,,BKN250,0.00,VWS V14.01,2013-08-18 14:29:00,
2013-08-18 10:34:00,70.7,57.5,29.78,WSW,245,0.0,2.7,63,0.00,,BKN250,0.00,VWS V14.01,2013-08-18 14:34:00,
2013-08-18 10:39:00,71.2,58.9,29.78,WNW,290,2.2,2.2,65,0.00,,BKN250,0.00,VWS V14.01,2013-08-18 14:39:00,
2013-08-18 10:44:00,71.4,58.2,29.78,NNE,22,2.7,3.1,63,0.00,,BKN250,0.00,VWS V14.01,2013-08-18 14:44:00,
2013-08-18 10:49:00,71.6,57.0,29.78,NNW,333,0.0,2.7,60,0.00,,BKN250,0.00,VWS V14.01,2013-08-18 14:49:00,
2013-08-18 10:54:00,72.0,58.2,29.78,West,260,0.0,0.0,62,0.00,,BKN250,0.00,VWS V14.01,2013-08-18 14:54:00,
2013-08-18 10:59:00,72.1,57.0,29.78,NW,312,0.0,3.1,59,0.00,,BKN250,0.00,VWS V14.01,2013-08-18 14:59:00,
2013-08-18 11:04:00,72.3,57.2,29.78,NW,326,0.0,0.0,59,0.00,,BKN250,0.00,VWS V14.01,2013-08-18 15:04:00,
2013-08-18 11:09:00,72.7,56.6,29.78,NW,316,4.0,5.4,57,0.00,,BKN250,0.00,VWS V14.01,2013-08-18 15:09:00,
2013-08-18 11:14:00,72.9,56.8,29.78,North,353,3.6,6.3,57,0.00,,BKN250,0.00,VWS V14.01,2013-08-18 15:14:00,
2013-08-18 11:19:00,73.0,56.4,29.78,North,7,4.9,4.9,56,0.00,,BKN250,0.00,VWS V14.01,2013-08-18 15:19:00,
2013-08-18 11:24:00,73.2,56.1,29.78,NW,306,2.7,4.0,55,0.00,,BKN250,0.00,VWS V14.01,2013-08-18 15:24:00,
2013-08-18 11:29:00,73.6,56.4,29.78,WSW,248,0.0,4.0,55,0.00,,BKN250,0.00,VWS V14.01,2013-08-18 15:29:00,
2013-08-18 11:34:00,73.9,55.8,29.78,NW,304,4.9,5.4,53,0.00,,BKN250,0.00,VWS V14.01,2013-08-18 15:34:00,
2013-08-18 11:39:00,74.1,56.4,29.78,WNW,300,0.0,0.0,54,0.00,,BKN250,0.00,VWS V14.01,2013-08-18 15:39:00,
2013-08-18 11:44:00,74.7,56.9,29.78,SSW,196,0.0,0.0,54,0.00,,BKN250,0.00,VWS V14.01,2013-08-18 15:44:00,
2013-08-18 11:49:00,74.5,56.8,29.78,NNW,327,3.1,4.0,54,0.00,,BKN250,0.00,VWS V14.01,2013-08-18 15:49:00,
2013-08-18 11:55:00,74.7,56.4,29.78,NW,307,0.0,3.1,53,0.00,,BKN250,0.00,VWS V14.01,2013-08-18 15:55:00,
2013-08-18 12:00:00,74.7,55.9,29.78,NW,304,2.7,3.6,52,0.00,,BKN250,0.00,VWS V14.01,2013-08-18 16:00:00,
2013-08-18 12:05:00,74.8,57.1,29.78,SW,231,0.0,0.0,54,0.00,,BKN250,0.00,VWS V14.01,2013-08-18 16:05:00,
2013-08-18 12:10:00,74.8,56.6,29.78,North,2,0.0,0.0,53,0.00,,BKN250,0.00,VWS V14.01,2013-08-18 16:10:00,
2013-08-18 12:15:00,75.0,56.8,29.78,North,3,2.2,2.7,53,0.00,,BKN250,0.00,VWS V14.01,2013-08-18 16:15:00,
2013-08-18 12:20:00,74.8,56.6,29.78,North,353,0.0,3.6,53,0.00,,BKN250,0.00,VWS V14.01,2013-08-18 16:20:00,
2013-08-18 12:25:00,75.0,56.8,29.78,North,353,0.0,0.0,53,0.00,,BKN250,0.00,VWS V14.01,2013-08-18 16:25:00,
2013-08-18 12:30:00,75.0,56.8,29.78,WSW,243,0.0,0.0,53,0.00,,BKN250,0.00,VWS V14.01,2013-08-18 16:30:00,
2013-08-18 12:35:00,75.2,56.4,29.78,NNE,19,0.0,2.7,52,0.00,,BKN250,0.00,VWS V14.01,2013-08-18 16:35:00,
2013-08-18 12:40:00,75.4,57.6,29.78,WNW,284,0.0,3.6,54,0.00,,BKN250,0.00,VWS V14.01,2013-08-18 16:40:00,
2013-08-18 12:45:00,75.4,56.5,29.78,North,353,0.0,2.2,52,0.00,,BKN250,0.00,VWS V14.01,2013-08-18 16:45:00,
2013-08-18 12:50:00,75.4,56.5,29.78,North,357,0.0,3.1,52,0.00,,BKN250,0.00,VWS V14.01,2013-08-18 16:50:00,
2013-08-18 12:55:00,75.6,56.7,29.75,North,353,0.0,0.0,52,0.00,,BKN250,0.00,VWS V14.01,2013-08-18 16:55:00,
2013-08-18 13:00:00,76.3,57.4,29.75,South,191,2.7,2.7,52,0.00,,BKN250,0.00,VWS V14.01,2013-08-18 17:00:00,
2013-08-18 13:05:00,76.6,57.2,29.75,SW,220,2.7,4.9,51,0.00,,BKN250,0.00,VWS V14.01,2013-08-18 17:05:00,
2013-08-18 13:10:00,76.5,57.0,29.75,SW,230,0.0,0.0,51,0.00,,BKN250,0.00,VWS V14.01,2013-08-18 17:10:00,
2013-08-18 13:15:00,75.9,56.5,29.75,SW,217,4.0,4.0,51,0.00,,BKN250,0.00,VWS V14.01,2013-08-18 17:15:00,
2013-08-18 13:20:00,75.7,54.7,29.75,WNW,290,3.1,4.0,48,0.00,,BKN250,0.00,VWS V14.01,2013-08-18 17:20:00,
2013-08-18 13:25:00,75.6,55.6,29.75,WNW,287,0.0,0.0,50,0.00,,BKN250,0.00,VWS V14.01,2013-08-18 17:25:00,
2013-08-18 13:30:00,75.9,57.0,29.75,SSW,197,4.0,5.8,52,0.00,,BKN250,0.00,VWS V14.01,2013-08-18 17:30:00,
2013-08-18 13:35:00,76.5,57.0,29.75,SW,221,0.0,5.8,51,0.00,,BKN260,0.00,VWS V14.01,2013-08-18 17:35:00,
2013-08-18 13:40:00,77.0,58.0,29.75,South,174,4.5,5.8,52,0.00,,BKN260,0.00,VWS V14.01,2013-08-18 17:40:00,
2013-08-18 13:45:00,76.8,57.9,29.75,SW,218,0.0,4.0,52,0.00,,BKN260,0.00,VWS V14.01,2013-08-18 17:45:00,
2013-08-18 13:50:00,76.8,57.3,29.75,ENE,63,3.1,4.9,51,0.00,,BKN260,0.00,VWS V14.01,2013-08-18 17:50:00,
2013-08-18 13:55:00,76.6,56.6,29.75,NE,45,5.4,6.3,50,0.00,,BKN260,0.00,VWS V14.01,2013-08-18 17:55:00,
2013-08-18 14:00:00,77.0,57.5,29.75,ENE,69,5.8,5.8,51,0.00,,BKN260,0.00,VWS V14.01,2013-08-18 18:00:00,
2013-08-18 14:05:00,76.8,57.3,29.75,NE,39,0.0,3.1,51,0.00,,BKN260,0.00,VWS V14.01,2013-08-18 18:05:00,
2013-08-18 14:10:00,77.2,57.1,29.75,NE,47,2.7,3.1,50,0.00,,BKN260,0.00,VWS V14.01,2013-08-18 18:10:00,
2013-08-18 14:15:00,76.8,56.8,29.75,NE,42,3.1,3.6,50,0.00,,BKN260,0.00,VWS V14.01,2013-08-18 18:15:00,
2013-08-18 14:20:00,77.2,57.7,29.75,West,264,3.6,4.0,51,0.00,,BKN260,0.00,VWS V14.01,2013-08-18 18:20:00,
2013-08-18 14:25:00,77.7,58.7,29.72,South,188,4.0,5.8,52,0.00,,BKN260,0.00,VWS V14.01,2013-08-18 18:25:00,
2013-08-18 14:30:00,77.9,58.3,29.72,South,175,0.0,6.3,51,0.00,,BKN260,0.00,VWS V14.01,2013-08-18 18:30:00,
2013-08-18 14:35:00,77.7,56.5,29.72,SE,141,2.7,2.7,48,0.00,,BKN250,0.00,VWS V14.01,2013-08-18 18:35:00,
2013-08-18 14:40:00,78.1,57.4,29.72,SW,225,0.0,6.3,49,0.00,,BKN250,0.00,VWS V14.01,2013-08-18 18:40:00,
2013-08-18 14:45:00,78.6,58.4,29.72,South,176,5.4,10.1,50,0.00,,BKN250,0.00,VWS V14.01,2013-08-18 18:45:00,
2013-08-18 14:50:00,78.6,57.9,29.72,SSE,152,2.7,7.6,49,0.00,,BKN250,0.00,VWS V14.01,2013-08-18 18:50:00,
2013-08-18 14:56:00,78.4,58.3,29.72,SSE,164,8.1,8.7,50,0.00,,BKN250,0.00,VWS V14.01,2013-08-18 18:56:00,
2013-08-18 15:01:00,78.1,58.0,29.72,SW,234,3.1,6.3,50,0.00,,BKN250,0.00,VWS V14.01,2013-08-18 19:01:00,
2013-08-18 15:06:00,78.1,58.0,29.72,SSW,195,0.0,2.7,50,0.00,,BKN250,0.00,VWS V14.01,2013-08-18 19:06:00,
2013-08-18 15:11:00,78.3,58.1,29.72,NNW,335,2.7,3.6,50,0.00,,BKN250,0.00,VWS V14.01,2013-08-18 19:11:00,
2013-08-18 15:16:00,78.3,56.4,29.72,WNW,285,0.0,4.0,47,0.00,,BKN250,0.00,VWS V14.01,2013-08-18 19:16:00,
2013-08-18 15:21:00,79.3,58.5,29.72,SE,145,4.5,8.7,49,0.00,,BKN250,0.00,VWS V14.01,2013-08-18 19:21:00,
2013-08-18 15:26:00,79.7,60.0,29.72,SSE,155,4.0,6.3,51,0.00,,BKN250,0.00,VWS V14.01,2013-08-18 19:26:00,
2013-08-18 15:31:00,79.7,59.4,29.72,South,187,2.7,5.4,50,0.00,,BKN250,0.00,VWS V14.01,2013-08-18 19:31:00,
2013-08-18 15:36:00,79.7,59.4,29.72,ESE,107,2.7,5.4,50,0.00,,BKN250,0.00,VWS V14.01,2013-08-18 19:36:00,
2013-08-18 15:41:00,79.9,59.6,29.72,East,93,3.6,4.5,50,0.00,,BKN250,0.00,VWS V14.01,2013-08-18 19:41:00,
2013-08-18 15:46:00,79.3,58.0,29.72,NE,46,5.4,5.4,48,0.00,,BKN250,0.00,VWS V14.01,2013-08-18 19:46:00,
2013-08-18 15:51:00,79.9,59.0,29.72,SSW,205,4.0,4.0,49,0.00,,BKN250,0.00,VWS V14.01,2013-08-18 19:51:00,
2013-08-18 15:56:00,80.6,60.3,29.72,South,169,2.2,6.7,50,0.00,,BKN250,0.00,VWS V14.01,2013-08-18 19:56:00,
2013-08-18 16:01:00,80.4,59.5,29.72,SSE,155,0.0,5.8,49,0.00,,BKN250,0.00,VWS V14.01,2013-08-18 20:01:00,
2013-08-18 16:06:00,79.9,58.5,29.72,ESE,123,2.7,4.0,48,0.00,,BKN250,0.00,VWS V14.01,2013-08-18 20:06:00,
2013-08-18 16:11:00,80.4,59.5,29.72,SSE,161,3.6,5.8,49,0.00,,BKN250,0.00,VWS V14.01,2013-08-18 20:11:00,
2013-08-18 16:16:00,80.6,59.1,29.72,SSE,164,0.0,3.6,48,0.00,,BKN250,0.00,VWS V14.01,2013-08-18 20:16:00,
2013-08-18 16:21:00,80.6,58.5,29.72,SSE,163,4.0,6.3,47,0.00,,BKN250,0.00,VWS V14.01,2013-08-18 20:21:00,
2013-08-18 16:26:00,80.1,58.0,29.72,SE,144,4.0,6.3,47,0.00,,BKN250,0.00,VWS V14.01,2013-08-18 20:26:00,
2013-08-18 16:31:00,80.1,58.6,29.72,SSW,198,3.6,4.9,48,0.00,,BKN250,0.00,VWS V14.01,2013-08-18 20:31:00,
2013-08-18 16:36:00,80.4,58.4,29.72,WSW,238,5.8,5.8,47,0.00,,BKN250,0.00,VWS V14.01,2013-08-18 20:36:00,
2013-08-18 16:41:00,80.1,57.4,29.72,WNW,284,3.1,5.8,46,0.00,,BKN250,0.00,VWS V14.01,2013-08-18 20:41:00,
2013-08-18 16:46:00,80.4,58.4,29.72,SW,231,3.1,6.3,47,0.00,,BKN250,0.00,VWS V14.01,2013-08-18 20:46:00,
2013-08-18 16:51:00,80.6,57.9,29.72,SW,232,2.7,5.8,46,0.00,,BKN250,0.00,VWS V14.01,2013-08-18 20:51:00,
2013-08-18 16:56:00,80.2,57.0,29.69,NW,305,2.7,5.4,45,0.00,,BKN250,0.00,VWS V14.01,2013-08-18 20:56:00,
2013-08-18 17:01:00,80.2,57.6,29.69,NW,321,3.1,4.9,46,0.00,,BKN250,0.00,VWS V14.01,2013-08-18 21:01:00,
2013-08-18 17:06:00,80.2,57.0,29.69,West,272,5.4,5.4,45,0.00,,BKN250,0.00,VWS V14.01,2013-08-18 21:06:00,
2013-08-18 17:11:00,80.6,57.9,29.69,West,259,6.3,6.3,46,0.00,,BKN250,0.00,VWS V14.01,2013-08-18 21:11:00,
2013-08-18 17:16:00,80.4,58.4,29.69,WSW,257,3.1,4.0,47,0.00,,BKN250,0.00,VWS V14.01,2013-08-18 21:16:00,
2013-08-18 17:21:00,80.6,58.5,29.69,South,172,3.1,4.0,47,0.00,,BKN250,0.00,VWS V14.01,2013-08-18 21:21:00,
2013-08-18 17:26:00,80.2,58.2,29.69,WNW,283,5.8,5.8,47,0.00,,BKN250,0.00,VWS V14.01,2013-08-18 21:26:00,
2013-08-18 17:31:00,80.1,57.4,29.69,SW,217,2.7,6.3,46,0.00,,BKN250,0.00,VWS V14.01,2013-08-18 21:31:00,
2013-08-18 17:36:00,80.1,57.4,29.69,South,186,4.0,6.3,46,0.00,,BKN250,0.00,VWS V14.01,2013-08-18 21:36:00,
2013-08-18 17:41:00,79.9,57.3,29.69,SW,217,3.6,6.3,46,0.00,,BKN250,0.00,VWS V14.01,2013-08-18 21:41:00,
2013-08-18 17:46:00,79.7,57.1,29.69,WSW,248,0.0,5.4,46,0.00,,BKN250,0.00,VWS V14.01,2013-08-18 21:46:00,
2013-08-18 17:51:00,79.5,57.5,29.69,West,265,2.7,4.5,47,0.00,,BKN250,0.00,VWS V14.01,2013-08-18 21:51:00,
2013-08-18 17:56:00,79.2,56.0,29.69,West,281,2.2,4.0,45,0.00,,BKN250,0.00,VWS V14.01,2013-08-18 21:56:00,
2013-08-18 18:01:00,79.3,56.8,29.69,NW,323,0.0,3.1,46,0.00,,BKN250,0.00,VWS V14.01,2013-08-18 22:01:00,
2013-08-18 18:06:00,79.3,56.8,29.69,SW,224,4.0,4.0,46,0.00,,BKN250,0.00,VWS V14.01,2013-08-18 22:06:00,
2013-08-18 18:11:00,79.3,56.8,29.69,SW,229,2.7,3.6,46,0.00,,BKN250,0.00,VWS V14.01,2013-08-18 22:11:00,
2013-08-18 18:16:00,79.5,57.0,29.69,SW,220,0.0,4.5,46,0.00,,BKN250,0.00,VWS V14.01,2013-08-18 22:16:00,
2013-08-18 18:21:00,79.3,56.8,29.69,SW,221,0.0,4.9,46,0.00,,BKN250,0.00,VWS V14.01,2013-08-18 22:21:00,
2013-08-18 18:26:00,78.6,56.1,29.69,South,189,3.1,4.0,46,0.00,,BKN250,0.00,VWS V14.01,2013-08-18 22:26:00,
2013-08-18 18:31:00,77.7,56.5,29.69,West,276,2.7,4.9,48,0.00,,BKN250,0.00,VWS V14.01,2013-08-18 22:31:00,
2013-08-18 18:37:00,77.0,57.5,29.69,West,276,0.0,0.0,51,0.00,,BKN250,0.00,VWS V14.01,2013-08-18 22:37:00,
2013-08-18 18:42:00,76.8,57.9,29.69,SW,227,0.0,2.7,52,0.00,,BKN250,0.00,VWS V14.01,2013-08-18 22:42:00,
2013-08-18 18:47:00,76.6,57.7,29.69,SW,227,0.0,0.0,52,0.00,,BKN250,0.00,VWS V14.01,2013-08-18 22:47:00,
2013-08-18 18:52:00,76.3,57.9,29.69,SW,227,0.0,0.0,53,0.00,,BKN250,0.00,VWS V14.01,2013-08-18 22:52:00,
2013-08-18 18:57:00,75.6,57.2,29.69,SW,227,0.0,0.0,53,0.00,,BKN250,0.00,VWS V14.01,2013-08-18 22:57:00,
2013-08-18 19:02:00,75.0,57.3,29.69,SW,227,0.0,0.0,54,0.00,,BKN250,0.00,VWS V14.01,2013-08-18 23:02:00,
2013-08-18 19:07:00,74.8,58.1,29.69,SW,227,0.0,0.0,56,0.00,,BKN250,0.00,VWS V14.01,2013-08-18 23:07:00,
2013-08-18 19:12:00,74.8,59.6,29.69,SW,227,0.0,0.0,59,0.00,,BKN250,0.00,VWS V14.01,2013-08-18 23:12:00,
2013-08-18 19:17:00,74.7,58.9,29.69,SW,227,0.0,0.0,58,0.00,,BKN250,0.00,VWS V14.01,2013-08-18 23:17:00,
2013-08-18 19:22:00,74.7,58.4,29.69,SW,227,0.0,0.0,57,0.00,,BKN250,0.00,VWS V14.01,2013-08-18 23:22:00,
2013-08-18 19:27:00,74.5,58.8,29.69,SW,227,0.0,0.0,58,0.00,,BKN250,0.00,VWS V14.01,2013-08-18 23:27:00,
2013-08-18 19:32:00,74.7,58.9,29.69,SW,227,0.0,0.0,58,0.00,,BKN250,0.00,VWS V14.01,2013-08-18 23:32:00,
2013-08-18 19:37:00,74.3,59.1,29.69,SW,227,0.0,0.0,59,0.00,,BKN250,0.00,VWS V14.01,2013-08-18 23:37:00,
2013-08-18 19:42:00,74.1,59.8,29.69,SW,227,0.0,0.0,61,0.00,,BKN250,0.00,VWS V14.01,2013-08-18 23:42:00,
2013-08-18 19:47:00,73.8,58.1,29.69,North,4,2.7,4.0,58,0.00,,BKN250,0.00,VWS V14.01,2013-08-18 23:47:00,
2013-08-18 19:52:00,73.4,57.3,29.69,North,10,3.1,6.3,57,0.00,,BKN250,0.00,VWS V14.01,2013-08-18 23:52:00,
2013-08-18 19:57:00,73.4,57.7,29.69,NNE,28,0.0,3.1,58,0.00,,BKN250,0.00,VWS V14.01,2013-08-18 23:57:00,
2013-08-18 20:02:00,73.0,57.9,29.69,North,8,2.7,4.0,59,0.00,,BKN250,0.00,VWS V14.01,2013-08-19 00:02:00,
2013-08-18 20:07:00,72.7,57.5,29.69,NNE,19,2.2,3.6,59,0.00,,BKN250,0.00,VWS V14.01,2013-08-19 00:07:00,
2013-08-18 20:12:00,72.5,57.4,29.69,NNE,19,0.0,2.2,59,0.00,,BKN250,0.00,VWS V14.01,2013-08-19 00:12:00,
2013-08-18 20:17:00,72.0,57.3,29.69,NNE,19,3.1,3.1,60,0.00,,BKN250,0.00,VWS V14.01,2013-08-19 00:17:00,
2013-08-18 20:22:00,71.8,57.2,29.69,NNE,19,2.2,2.7,60,0.00,,BKN250,0.00,VWS V14.01,2013-08-19 00:22:00,
2013-08-18 20:27:00,71.4,57.3,29.69,NNE,19,0.0,0.0,61,0.00,,BKN250,0.00,VWS V14.01,2013-08-19 00:27:00,
2013-08-18 20:32:00,70.9,56.8,29.69,NNE,19,0.0,0.0,61,0.00,,BKN250,0.00,VWS V14.01,2013-08-19 00:32:00,
2013-08-18 20:37:00,70.2,57.0,29.66,NNE,19,0.0,0.0,63,0.00,,BKN250,0.00,VWS V14.01,2013-08-19 00:37:00,
2013-08-18 20:42:00,70.2,57.0,29.66,North,357,4.0,4.0,63,0.00,,BKN250,0.00,VWS V14.01,2013-08-19 00:42:00,
2013-08-18 20:47:00,70.0,56.8,29.66,North,1,3.6,4.0,63,0.00,,BKN250,0.00,VWS V14.01,2013-08-19 00:47:00,
2013-08-18 20:52:00,69.8,56.7,29.66,North,9,2.7,4.0,63,0.00,,BKN250,0.00,VWS V14.01,2013-08-19 00:52:00,
2013-08-18 20:57:00,69.6,56.5,29.66,North,3,3.1,4.0,63,0.00,,BKN250,0.00,VWS V14.01,2013-08-19 00:57:00,
2013-08-18 21:02:00,69.6,56.5,29.66,North,7,0.0,3.1,63,0.00,,BKN250,0.00,VWS V14.01,2013-08-19 01:02:00,
2013-08-18 21:07:00,69.3,56.1,29.66,North,7,0.0,0.0,63,0.00,,BKN250,0.00,VWS V14.01,2013-08-19 01:07:00,
2013-08-18 21:12:00,68.5,55.5,29.66,North,7,0.0,0.0,63,0.00,,BKN250,0.00,VWS V14.01,2013-08-19 01:12:00,
2013-08-18 21:17:00,68.0,55.8,29.66,North,7,0.0,0.0,65,0.00,,BKN250,0.00,VWS V14.01,2013-08-19 01:17:00,
2013-08-18 21:22:00,67.8,56.1,29.69,North,7,0.0,0.0,66,0.00,,BKN250,0.00,VWS V14.01,2013-08-19 01:22:00,
2013-08-18 21:27:00,67.3,56.0,29.69,North,7,0.0,0.0,67,0.00,,BKN250,0.00,VWS V14.01,2013-08-19 01:27:00,
2013-08-18 21:32:00,67.1,56.2,29.69,North,7,0.0,0.0,68,0.00,,BKN250,0.00,VWS V14.01,2013-08-19 01:32:00,
2013-08-18 21:37:00,66.9,56.4,29.69,North,7,0.0,0.0,69,0.00,,SCT250,0.00,VWS V14.01,2013-08-19 01:37:00,
2013-08-18 21:42:00,66.6,55.3,29.69,North,7,0.0,0.0,67,0.00,,SCT250,0.00,VWS V14.01,2013-08-19 01:42:00,
2013-08-18 21:48:00,66.4,55.1,29.69,North,7,0.0,0.0,67,0.00,,SCT250,0.00,VWS V14.01,2013-08-19 01:48:00,
2013-08-18 21:53:00,66.2,55.3,29.66,North,7,0.0,0.0,68,0.00,,SCT250,0.00,VWS V14.01,2013-08-19 01:53:00,
2013-08-18 21:58:00,66.0,56.0,29.66,North,7,0.0,0.0,70,0.00,,SCT250,0.00,VWS V14.01,2013-08-19 01:58:00,
2013-08-18 22:03:00,65.7,55.2,29.66,North,7,0.0,0.0,69,0.00,,SCT250,0.00,VWS V14.01,2013-08-19 02:03:00,
2013-08-18 22:08:00,65.8,56.2,29.69,North,7,0.0,0.0,71,0.00,,SCT250,0.00,VWS V14.01,2013-08-19 02:08:00,
2013-08-18 22:13:00,65.8,55.8,29.69,North,7,0.0,0.0,70,0.00,,SCT250,0.00,VWS V14.01,2013-08-19 02:13:00,
2013-08-18 22:18:00,66.0,56.4,29.69,North,7,0.0,0.0,71,0.00,,SCT250,0.00,VWS V14.01,2013-08-19 02:18:00,
2013-08-18 22:23:00,66.4,57.1,29.69,North,7,0.0,0.0,72,0.00,,SCT250,0.00,VWS V14.01,2013-08-19 02:23:00,
2013-08-18 22:28:00,66.2,57.3,29.69,North,7,0.0,0.0,73,0.00,,SCT250,0.00,VWS V14.01,2013-08-19 02:28:00,
2013-08-18 22:33:00,66.0,57.1,29.69,North,7,0.0,0.0,73,0.00,,SCT250,0.00,VWS V14.01,2013-08-19 02:33:00,
2013-08-18 22:38:00,65.8,57.0,29.66,North,7,0.0,0.0,73,0.00,,SCT250,0.00,VWS V14.01,2013-08-19 02:38:00,
2013-08-18 22:43:00,66.0,57.1,29.66,North,7,0.0,0.0,73,0.00,,SCT250,0.00,VWS V14.01,2013-08-19 02:43:00,
2013-08-18 22:48:00,65.7,56.8,29.66,North,7,0.0,0.0,73,0.00,,SCT250,0.00,VWS V14.01,2013-08-19 02:48:00,
2013-08-18 22:53:00,65.5,56.6,29.66,North,7,0.0,0.0,73,0.00,,SCT250,0.00,VWS V14.01,2013-08-19 02:53:00,
2013-08-18 22:58:00,64.9,56.1,29.66,North,7,0.0,0.0,73,0.00,,SCT250,0.00,VWS V14.01,2013-08-19 02:58:00,
2013-08-18 23:03:00,65.1,56.3,29.66,North,7,0.0,0.0,73,0.00,,SCT250,0.00,VWS V14.01,2013-08-19 03:03:00,
2013-08-18 23:08:00,65.5,57.4,29.66,SW,215,3.1,4.0,75,0.00,,SCT250,0.00,VWS V14.01,2013-08-19 03:08:00,
2013-08-18 23:13:00,65.8,58.1,29.66,SW,221,2.7,3.6,76,0.00,,SCT250,0.00,VWS V14.01,2013-08-19 03:13:00,
2013-08-18 23:18:00,65.7,57.9,29.66,SSW,199,3.1,3.1,76,0.00,,SCT250,0.00,VWS V14.01,2013-08-19 03:18:00,
2013-08-18 23:23:00,64.9,56.8,29.66,SSW,199,0.0,0.0,75,0.00,,SCT250,0.00,VWS V14.01,2013-08-19 03:23:00,
2013-08-18 23:28:00,64.8,56.7,29.66,SSW,199,0.0,0.0,75,0.00,,SCT250,0.00,VWS V14.01,2013-08-19 03:28:00,
2013-08-18 23:33:00,64.6,57.2,29.66,SSW,199,0.0,0.0,77,0.00,,SCT250,0.00,VWS V14.01,2013-08-19 03:33:00,
2013-08-18 23:38:00,64.6,56.8,29.66,SSW,199,0.0,0.0,76,0.00,,SCT250,0.00,VWS V14.01,2013-08-19 03:38:00,
2013-08-18 23:43:00,64.2,56.5,29.66,SSW,200,0.0,0.0,76,0.00,,SCT250,0.00,VWS V14.01,2013-08-19 03:43:00,
2013-08-18 23:48:00,64.0,56.3,29.66,SW,228,3.1,3.1,76,0.00,,SCT250,0.00,VWS V14.01,2013-08-19 03:48:00,
2013-08-18 23:53:00,63.9,56.2,29.66,SW,219,2.2,2.7,76,0.00,,SCT250,0.00,VWS V14.01,2013-08-19 03:53:00,
2013-08-18 23:58:00,64.0,56.3,29.66,SW,219,3.1,3.1,76,0.00,,SCT250,0.00,VWS V14.01,2013-08-19 03:58:00,